QPF
0.01 0.01 0.00 0.00 0.00 0.00 0.00 0.00 0.00 0.00 0.00 0.00 0.00 0.00 0.00 0.00 0.00 0.00 0.00 0.00 0.00 0.00 0.00 0.00 0.00 0.00 0.00
0.00 0.00 0.00 0.01 0.00 0.00 0.00 0.00 0.00 0.00 0.00 0.00 0.00 0.00 0.00 0.00 0.00 0.00 0.00 0.00 0.00 0.00 0.00 0.00 0.00 0.00 0.00
0.00 0.00 0.00 0.00 0.00 0.00 0.00 0.00 0.00 0.00 0.00 0.00 0.00 0.00 0.00 0.00 0.00 0.00 0.00 0.00 0.00 0.00 0.00 0.00 0.00 0.00 0.00
0.00 0.00 0.00 0.00 0.00 0.00 0.00 0.00 0.00 0.00 0.00 0.00 0.00 0.00 0.00 0.00 0.00 0.00 0.00 0.00 0.00 0.00 0.00 0.00 0.00 0.00 0.00
0.00 0.00 0.00 0.00 0.00 0.00 0.00 0.00 0.00 0.00 0.00 0.00 0.00 0.00 0.00 0.00 0.00 0.00 0.00 0.00 0.00 0.00 0.00 0.00 0.00 0.00 0.00
0.00 0.00 0.00 0.00 0.00 0.00 0.00 0.00 0.00 0.00 0.00 0.00 0.00 0.00 0.00 0.00 0.00 0.00 0.00 0.00 0.00 0.00 0.00 0.00 0.00 0.00 0.00
0.00 0.00 0.00 0.00 0.00 0.00 0.00 0.00 0.00 0.00 0.00 0.00 0.00 0.00 0.00 0.00 0.00 0.00 0.00 0.00 0.00 0.00 0.00 0.00 0.00 0.00 0.00
0.00 0.00 0.00 0.00 0.00 0.00 0.00 0.00 0.00 0.00 0.00 0.00 0.00 0.00 0.00 0.00 0.00 0.00 0.00 0.00 0.00 0.00 0.00 0.00 0.00 0.00 0.00
0.00 0.00 0.00 0.00 0.00 0.00 0.00 0.00 0.00 0.00 0.00 0.00 0.00 0.00 0.00 0.00 0.00 0.00 0.00 0.00 0.00 0.00 0.00 0.00 0.00 0.01 0.00
0.00 0.00 0.00 0.00 0.00 0.00 0.00 0.00 0.00 0.00 0.00 0.00 0.00 0.00 0.00 0.00 0.00 0.00 0.00 0.00 0.00 0.00 0.00 0.00 0.00 0.00 0.00
0.00 0.00 0.00 0.00 0.00 0.00 0.00 0.00 0.00 0.00 0.00 0.00 0.00 0.00 0.00 0.00 0.00 0.00 0.00 0.00 0.00 0.00 0.00 0.00 0.00 0.00 0.00
0.00 0.00 0.00 0.00 0.00 0.00 0.00 0.00 0.00 0.00 0.00 0.00 0.00 0.00 0.00 0.00 0.00 0.00 0.00 0.00 0.00 0.00 0.00 0.00 0.00 0.00 0.00
0.00 0.00 0.00 0.00 0.00 0.00 0.00 0.00 0.00 0.00 0.00 0.00 0.00 0.00 0.00 0.00 0.00 0.00 0.00 0.00 0.00 0.00 0.00 0.00 0.00 0.00 0.00
0.00 0.00 0.00 0.00 0.00 0.00 0.00 0.00 0.00 0.00 0.00 0.00 0.00 0.00 0.00 0.00 0.00 0.00 0.00 0.00 0.00 0.00 0.00 0.00 0.00 0.00 0.00
0.00 0.00 0.00 0.00 0.00 0.00 0.00 0.00 0.00 0.00 0.00 0.00 0.00 0.00 0.00 0.00 0.00 0.00 0.00 0.00 0.00 0.00 0.00 0.00 0.00 0.00 0.00
0.00 0.00 0.00 0.00 0.00 0.00 0.00 0.00 0.00 0.00 0.00 0.00 0.00 0.00 0.00 0.00 0.00 0.00 0.00 0.00 0.00 0.00 0.00 0.00 0.00 0.00 0.00
0.00 0.00 0.00 0.00 0.00 0.00 0.00 0.00 0.00 0.00 0.00 0.00 0.00 0.00 0.00 0.00 0.00 0.00 0.00 0.00 0.00 0.00 0.00 0.00 0.00 0.00 0.00
MSLP
1011.83 1012.51 1012.70 1012.79 1012.91 1012.89 1012.88 1012.97 1013.02 1012.97 1012.91 1012.89 1012.85 1012.88 1012.93 1012.95 1012.95 1012.72 1012.68 1012.54 1012.45 1012.30 1012.10 1012.12 1011.73 1011.80 1011.82
1012.45 1012.93 1013.16 1013.28 1013.33 1013.38 1013.38 1013.38 1013.29 1013.11 1013.12 1013.03 1013.05 1013.14 1013.14 1013.20 1013.05 1012.96 1012.88 1012.86 1012.70 1012.55 1012.02 1012.07 1011.97 1012.15 1011.52
1012.87 1013.24 1013.53 1013.60 1013.67 1013.60 1013.61 1013.71 1013.47 1013.25 1013.16 1013.09 1013.09 1013.18 1013.08 1012.94 1012.93 1012.92 1012.97 1012.89 1012.65 1012.38 1012.14 1012.24 1011.71 1011.78 1011.54
1012.96 1013.40 1013.58 1013.72 1013.79 1014.09 1014.16 1013.87 1013.62 1013.44 1013.36 1013.25 1013.11 1012.98 1012.90 1012.63 1012.57 1012.65 1012.52 1012.39 1012.62 1012.52 1012.17 1011.70 1011.64 1011.75 1011.60
1013.45 1013.70 1013.97 1014.21 1014.38 1014.44 1014.40 1014.15 1013.97 1013.78 1013.59 1013.32 1013.25 1013.21 1012.88 1012.62 1012.54 1012.48 1012.51 1012.56 1012.50 1012.22 1011.95 1011.72 1011.73 1011.85 1011.75
1013.98 1014.29 1014.61 1014.63 1014.56 1014.49 1014.46 1014.50 1014.52 1013.90 1013.94 1013.62 1013.23 1013.17 1012.97 1012.76 1012.60 1012.53 1012.47 1012.52 1012.33 1012.17 1012.01 1011.86 1011.73 1011.46 1011.18
1014.20 1014.41 1014.65 1014.76 1014.72 1014.85 1014.86 1014.77 1014.60 1013.97 1014.00 1013.97 1013.54 1013.55 1013.17 1012.96 1012.87 1012.51 1012.63 1012.51 1012.31 1012.12 1011.99 1011.71 1011.36 1011.02 1010.71
1014.24 1014.62 1014.59 1014.63 1014.73 1014.88 1014.95 1015.07 1014.77 1014.52 1014.26 1014.57 1014.12 1013.97 1013.34 1013.00 1012.64 1012.56 1012.58 1012.50 1012.14 1011.88 1011.49 1011.18 1010.85 1010.49 1010.19
1014.19 1014.37 1014.59 1014.82 1014.82 1014.97 1015.19 1015.17 1015.16 1015.07 1014.86 1014.84 1014.72 1014.26 1013.67 1013.21 1012.74 1012.57 1012.52 1012.36 1012.07 1011.54 1011.27 1010.87 1010.51 1010.18 1010.10
1014.41 1014.42 1014.62 1014.77 1014.91 1015.23 1015.46 1015.75 1015.86 1015.56 1015.32 1015.39 1015.20 1015.17 1014.51 1013.41 1013.11 1012.98 1012.86 1012.65 1012.27 1011.88 1011.22 1010.70 1010.37 1010.03 1009.73
1014.69 1014.59 1014.69 1014.97 1015.19 1015.36 1015.56 1015.87 1016.00 1016.13 1015.65 1015.81 1015.93 1015.74 1015.54 1014.81 1013.52 1013.05 1013.06 1012.82 1012.29 1011.58 1011.11 1010.75 1010.23 1009.81 1009.41
1014.92 1014.95 1014.85 1015.12 1015.34 1015.55 1015.64 1015.69 1015.69 1015.74 1015.56 1015.89 1016.17 1015.88 1015.58 1015.04 1014.18 1012.98 1012.72 1012.37 1011.92 1011.39 1010.82 1010.34 1009.85 1009.40 1009.11
1014.64 1014.90 1015.25 1015.17 1015.39 1015.55 1015.35 1015.51 1015.49 1015.43 1015.27 1015.36 1015.54 1015.33 1015.41 1014.93 1014.41 1013.52 1012.76 1011.66 1011.41 1010.91 1010.51 1010.05 1009.53 1009.03 1008.30
1014.38 1014.56 1014.59 1015.24 1015.39 1015.32 1015.63 1015.55 1015.73 1015.25 1014.93 1015.02 1015.17 1014.96 1014.71 1014.40 1014.02 1013.18 1012.82 1012.35 1011.05 1010.71 1010.08 1009.53 1008.94 1008.44 1007.89
1014.00 1014.36 1014.62 1014.87 1015.30 1015.36 1015.38 1015.76 1015.69 1015.48 1015.28 1014.70 1014.38 1014.15 1014.14 1014.06 1013.49 1012.89 1012.26 1011.58 1011.05 1010.35 1009.87 1009.03 1008.18 1007.61 1007.03
1013.46 1013.86 1014.35 1014.66 1014.94 1015.06 1015.27 1015.37 1015.42 1015.19 1015.29 1015.15 1014.39 1013.82 1013.38 1012.79 1012.46 1012.46 1012.06 1011.48 1010.85 1010.31 1009.67 1008.71 1007.58 1006.84 1006.47
1013.10 1013.55 1013.99 1014.31 1014.64 1014.82 1014.98 1015.10 1015.03 1014.92 1014.89 1014.63 1014.45 1014.15 1013.61 1013.18 1012.45 1012.00 1012.05 1011.41 1010.66 1009.74 1008.96 1008.30 1007.42 1006.39 1005.81
Thickness
5529 5522 5520 5519 5518 5518 5520 5520 5520 5521 5523 5523 5523 5524 5523 5522 5521 5523 5523 5522 5522 5524 5525 5523 5525 5522 5524
5520 5513 5510 5509 5509 5508 5508 5507 5508 5509 5509 5510 5511 5510 5509 5507 5508 5508 5508 5508 5508 5509 5512 5510 5508 5505 5510
5515 5509 5503 5501 5499 5499 5498 5497 5498 5498 5499 5499 5500 5498 5498 5498 5497 5497 5496 5496 5497 5499 5499 5495 5499 5495 5497
5512 5506 5502 5498 5495 5490 5488 5490 5490 5491 5490 5490 5491 5490 5490 5491 5491 5490 5490 5489 5486 5485 5487 5489 5488 5486 5484
5503 5500 5495 5489 5486 5484 5482 5483 5483 5483 5482 5483 5483 5482 5483 5483 5481 5480 5477 5475 5475 5475 5475 5475 5473 5469 5468
5491 5486 5482 5479 5478 5476 5475 5472 5471 5474 5471 5471 5474 5472 5471 5471 5469 5467 5465 5462 5462 5461 5460 5459 5457 5457 5456
5482 5478 5474 5471 5469 5465 5463 5461 5460 5463 5461 5458 5460 5457 5458 5457 5455 5455 5451 5450 5448 5446 5444 5443 5442 5442 5443
5475 5468 5465 5462 5459 5456 5452 5449 5449 5448 5448 5440 5443 5441 5443 5444 5442 5440 5437 5434 5433 5431 5430 5428 5428 5428 5428
5465 5460 5454 5449 5447 5443 5437 5436 5434 5434 5432 5430 5428 5428 5429 5428 5429 5426 5423 5420 5418 5417 5414 5412 5410 5409 5406
5453 5450 5444 5439 5434 5430 5426 5418 5415 5414 5418 5412 5411 5409 5407 5413 5412 5410 5407 5403 5400 5397 5396 5394 5390 5389 5389
5439 5437 5433 5427 5422 5417 5413 5408 5403 5399 5402 5399 5397 5395 5392 5392 5393 5394 5390 5385 5382 5380 5377 5373 5372 5372 5374
5425 5422 5421 5416 5410 5405 5401 5398 5395 5392 5391 5386 5379 5378 5379 5379 5377 5379 5376 5372 5369 5366 5364 5361 5360 5360 5359
5416 5409 5402 5402 5399 5394 5393 5388 5386 5382 5380 5377 5373 5368 5364 5365 5363 5363 5366 5362 5357 5355 5351 5350 5350 5351 5353
5405 5399 5396 5386 5384 5383 5377 5375 5371 5371 5372 5367 5363 5359 5356 5354 5352 5353 5349 5346 5349 5345 5345 5342 5342 5342 5344
5395 5389 5384 5379 5374 5370 5366 5361 5358 5355 5354 5358 5356 5352 5346 5343 5341 5341 5340 5339 5338 5338 5335 5335 5337 5338 5339
5387 5381 5373 5368 5365 5361 5356 5356 5353 5352 5341 5341 5344 5343 5340 5334 5335 5329 5326 5326 5326 5325 5325 5328 5331 5333 5333
5375 5368 5362 5357 5355 5351 5348 5345 5344 5343 5338 5336 5331 5328 5327 5324 5319 5320 5316 5315 5316 5318 5319 5320 5323 5327 5329